GSAT0222 (GALILEO 26)

Last updated on Tue Oct 08 2024 00:02:28 GMT+0000 (Coordinated Universal Time)

1 43565U 18060B 24281.02300652 -.00000082 00000+0 00000+0 0 9992 2 43565 57.3029 358.4618 0004866 235.6004 124.4093 1.70475939 38672
UTC large
Height (km)
Speed (km/s)
/
Latitude / Longitude
Inclination (degrees)
Orbital Period (minutes)
Azimuth
Elevation
Range (km)
Doppler Factor

Next 0 passes for location: London (51.5072 / 0.1276)

Sorry there are no passes over London.